Weather History for GMTA - July, 2013

Change the Weather History Date:

Friday, July 5, 2013

  Actual Average Record
Temperature  
Mean Temperature 76 °F -  
Max Temperature 86 °F 79 °F 89 °F (1996)
Min Temperature 66 °F 66 °F 62 °F (2011)
Cooling Degree Days 11    
Growing Degree Days 26 (Base 50)    
Moisture  
Dew Point 69 °F    
Average Humidity 74    
Maximum Humidity 94    
Minimum Humidity 48    
Precipitation  
Precipitation 0.00 in - - ()
Sea Level Pressure  
Sea Level Pressure 30.10 in    
Wind  
Wind Speed 7 mph ()    
Max Wind Speed 20 mph    
Max Gust Speed -    
Visibility 6.6 miles    
Events      
Averages and records for this station are not official NWS values.
T = Trace of Precipitation, MM = Missing Value Source: Averaged Metar Reports

Daily Weather History Graph

Daily Weather History Graph

Search for Another Location

Airport or City:

Trip Planner

Search our weather history database for the weather conditions in past years. The results will help you decide how hot, cold, wet, or windy it might be!

Date:

Astronomy

Jul. 05, 2013 Rise Set
Actual Time 6:06 AM WEST 8:33 PM WEST
Civil Twilight 5:36 AM WEST 9:02 PM WEST
Nautical Twilight 5:00 AM WEST 9:39 PM WEST
Astronomical Twilight 4:20 AM WEST 10:19 PM WEST
Moon 3:53 AM WEST (7/5) 6:18 PM WEST (7/5)
Length of Visible Light 15h 25m
Length of Day
14h 26m
Waning Crescent, 7% of the Moon is Illuminated
Jul 5
Waning Crescent
Jul 8
New
Jul 16
First Quarter
Jul 22
Full
Jul 29
Last Quarter

Hourly Weather History & Observations

Time (WEST) Temp. Heat Index Dew Point Humidity Pressure Visibility Wind Dir Wind Speed Gust Speed Precip Events Conditions
12:00 AM 71.6 °F - 68.0 °F 88% 30.09 in - West 4.6 mph - N/A   Clear
1:00 AM 70 °F - 68 °F 91% 30.11 in 6 mi West 4.6 mph - -  
1:00 AM 69.8 °F - 68.0 °F 94% 30.09 in - West 4.6 mph - N/A   Clear
2:00 AM 69.8 °F - 68.0 °F 94% 30.09 in - South 2.3 mph - N/A   Clear
7:00 AM 68 °F - 65 °F 89% 30.12 in 6 mi Calm Calm - -   Scattered Clouds
7:00 AM 68.0 °F - 66.2 °F 94% 30.09 in 6.2 mi Calm Calm - N/A   Partly Cloudy
8:00 AM 71.6 °F - 68.0 °F 88% 30.12 in 6.2 mi WNW 2.3 mph - N/A   Partly Cloudy
9:00 AM 75.2 °F - 71.6 °F 89% 30.12 in 6.2 mi NNW 2.3 mph - N/A   Partly Cloudy
10:00 AM 78 °F - 71 °F 74% 30.13 in 6 mi NNE 9.2 mph - -   Scattered Clouds
10:00 AM 77.0 °F - 71.6 °F 83% 30.12 in 6.2 mi NNE 9.2 mph - N/A   Partly Cloudy
11:00 AM 78.8 °F - 73.4 °F 83% 30.12 in 6.2 mi NNE 13.8 mph - N/A   Partly Cloudy
12:00 PM 78.8 °F - 71.6 °F 78% 30.12 in 6.2 mi NNE 16.1 mph - N/A   Partly Cloudy
1:00 PM 82 °F - 73 °F 67% 30.12 in 6 mi NE 16.1 mph - -   Scattered Clouds
1:00 PM 82.4 °F 88.2 °F 73.4 °F 74% 30.09 in 6.2 mi NE 16.1 mph - N/A   Partly Cloudy
2:00 PM 82.4 °F 86.3 °F 69.8 °F 66% 30.09 in 6.2 mi NE 18.4 mph - N/A   Partly Cloudy
3:00 PM 84.2 °F 88.4 °F 69.8 °F 62% 30.09 in 6.2 mi NE 16.1 mph - N/A   Partly Cloudy
4:00 PM 85 °F - 70 °F 53% 30.08 in 9 mi East 19.6 mph - -   Scattered Clouds
4:00 PM 84.2 °F 88.4 °F 69.8 °F 62% 30.06 in 6.2 mi East 19.6 mph - N/A   Partly Cloudy
5:00 PM 84.2 °F 88.4 °F 69.8 °F 62% 30.06 in 6.2 mi ENE 13.8 mph - N/A   Partly Cloudy
6:00 PM 84.2 °F 88.4 °F 69.8 °F 62% 30.06 in - ENE 11.5 mph - N/A   Clear
7:00 PM 83 °F - 66 °F 48% 30.08 in 9 mi East 16.1 mph - -  
7:00 PM 82.4 °F 84.6 °F 66.2 °F 58% 30.06 in - East 16.1 mph - N/A   Clear
8:00 PM 80.6 °F 82.7 °F 66.2 °F 61% 30.06 in - ENE 9.2 mph - N/A   Clear
9:00 PM 77.0 °F - 66.2 °F 69% 30.09 in - ENE 11.5 mph - N/A   Clear
10:00 PM 76 °F - 67 °F 66% 30.12 in 9 mi ENE 2.3 mph - -  
10:00 PM 75.2 °F - 66.2 °F 73% 30.09 in - ENE 4.6 mph - N/A   Clear